Location: Trout Lake
(45.9980°N, 121.5270°W)
Time: 20:45:52
(UTC-08:00)

Cosmos 1844 - Pass Details

Date: 06 December 2023
Orbit: 824 x 865 km, 70.9° (Epoch: 22 February)

Event Time Altitude Azimuth Distance (km) Brightness Sun altitude
Rises 17:34:43 0° 181° (S) 3,429 7.2 -12.3°
Reaches altitude 10° 17:37:19 10° 174° (S) 2,493 6.3 -12.7°
Maximum altitude 17:42:35 39° 107° (ESE) 1,260 4.2 -13.6°
Enters shadow 17:46:28 17° 47° (NE) 2,020 5.1 -14.2°
